Location: Banios
(43.0451°N, 0.2335°E)
Time: 18:34:18
(UTC+00:00)

A-11 Canister half - Pass Details

Date: 02 December 2021
Orbit: 1516 x 1684 km, 47.2° (Epoch: 22 January)

Event Time Altitude Azimuth Distance (km) Brightness Sun altitude
Rises 05:53:48 0° 202° (SSW) 4,724 11.5 -13.9°
Reaches altitude 10° 05:57:10 10° 194° (SSW) 3,766 11.1 -13.3°
Maximum altitude 06:05:31 35° 133° (SE) 2,393 10.7 -11.8°
Drops below altitude 10° 06:14:07 10° 73° (ENE) 3,896 12.0 -10.4°
Sets 06:17:38 0° 65° (ENE) 4,905 12.4 -9.8°
